When you browse on this site, cookies collect data to enhance your experience and personalize the content and advertising you see.
Visit our Privacy Policy to learn more. By continuing to use the site, you agree to this use of cookies and data.
  • în România
  • Lista ţărilor
  • Pe 7 zile
  • Temperatura apei
  • Meteo pe hartă
  • Widget-uri
  • user-avatar
    Intrare

    Meteo pe oră la Can Tho

    Astăzi, 5 Iunie, Vineri

    Timp Temperatura Precipitaţii Vânt Presiune Umiditate
    00:00 +28°C° 0 mm 2 m/s 756 mmHg 85%
    01:00 +28°C° 0 mm 1 m/s 757 mmHg 84%
    02:00 +28°C° 0 mm 1 m/s 756 mmHg 85%
    03:00 +28°C° 0 mm 2 m/s 756 mmHg 86%
    04:00 +27°C° 0 mm 2 m/s 755 mmHg 87%
    05:00 +28°C° 0 mm 2 m/s 756 mmHg 85%
    06:00 +29°C° 0 mm 1 m/s 756 mmHg 84%
    07:00 +29°C° 0 mm 1 m/s 756 mmHg 81%
    08:00 +31°C° 0 mm 1 m/s 756 mmHg 74%
    09:00 +34°C° 0 mm 2 m/s 757 mmHg 67%
    10:00 +35°C° 0 mm 2 m/s 757 mmHg 60%
    11:00 +35°C° 0.9 mm 2 m/s 756 mmHg 60%
    12:00 +35°C° 0.9 mm 2 m/s 756 mmHg 60%
    13:00 +36°C° 0 mm 2 m/s 756 mmHg 60%
    14:00 +35°C° 2.1 mm 2 m/s 755 mmHg 62%
    15:00 +35°C° 2.1 mm 2 m/s 754 mmHg 64%
    16:00 +34°C° 2.1 mm 2 m/s 754 mmHg 67%
    17:00 +32°C° 0.1 mm 2 m/s 754 mmHg 71%
    18:00 +31°C° 0.1 mm 2 m/s 755 mmHg 76%
    19:00 +30°C° 0.1 mm 2 m/s 755 mmHg 80%
    20:00 +30°C° 0 mm 2 m/s 756 mmHg 81%
    21:00 +29°C° 0 mm 2 m/s 756 mmHg 83%
    22:00 +29°C° 0 mm 2 m/s 757 mmHg 84%
    23:00 +29°C° 0 mm 2 m/s 756 mmHg 85%

    Mâine, 6 Iunie, Sâmbătă

    Timp Temperatura Precipitaţii Vânt Presiune Umiditate
    00:00 +29°C° 0 mm 2 m/s 756 mmHg 85%
    01:00 +29°C° 0 mm 2 m/s 756 mmHg 86%
    02:00 +28°C° 0 mm 2 m/s 755 mmHg 86%
    03:00 +28°C° 0 mm 1 m/s 755 mmHg 86%
    04:00 +28°C° 0 mm 1 m/s 755 mmHg 86%
    05:00 +29°C° 0 mm 2 m/s 755 mmHg 84%
    06:00 +29°C° 0 mm 2 m/s 755 mmHg 83%
    07:00 +30°C° 0 mm 2 m/s 756 mmHg 81%
    08:00 +31°C° 0 mm 2 m/s 756 mmHg 73%
    09:00 +34°C° 0 mm 3 m/s 756 mmHg 65%
    10:00 +36°C° 0 mm 4 m/s 756 mmHg 58%
    11:00 +36°C° 0.8 mm 4 m/s 756 mmHg 59%
    12:00 +35°C° 0.8 mm 4 m/s 756 mmHg 60%
    13:00 +35°C° 0.8 mm 5 m/s 755 mmHg 61%
    14:00 +35°C° 2.1 mm 4 m/s 755 mmHg 65%
    15:00 +34°C° 2.1 mm 4 m/s 754 mmHg 70%
    16:00 +33°C° 2.1 mm 4 m/s 754 mmHg 74%
    17:00 +31°C° 0.4 mm 3 m/s 754 mmHg 77%
    18:00 +30°C° 0.4 mm 3 m/s 755 mmHg 80%
    19:00 +29°C° 0.4 mm 3 m/s 755 mmHg 83%
    20:00 +29°C° 0 mm 3 m/s 756 mmHg 84%
    21:00 +29°C° 0 mm 2 m/s 756 mmHg 85%
    22:00 +28°C° 0 mm 2 m/s 757 mmHg 86%
    23:00 +28°C° 0 mm 2 m/s 757 mmHg 87%

    Poimâine, 7 Iunie, Duminică

    Timp Temperatura Precipitaţii Vânt Presiune Umiditate
    00:00 +28°C° 0 mm 2 m/s 756 mmHg 87%
    01:00 +28°C° 0 mm 2 m/s 756 mmHg 88%
    02:00 +28°C° 0 mm 2 m/s 756 mmHg 88%
    03:00 +28°C° 0 mm 2 m/s 755 mmHg 89%
    04:00 +28°C° 0 mm 2 m/s 755 mmHg 90%
    05:00 +28°C° 0 mm 2 m/s 755 mmHg 88%
    06:00 +28°C° 0 mm 2 m/s 756 mmHg 86%
    07:00 +29°C° 0 mm 2 m/s 756 mmHg 85%
    08:00 +30°C° 0 mm 3 m/s 756 mmHg 79%
    09:00 +33°C° 0 mm 3 m/s 756 mmHg 73%
    10:00 +34°C° 0 mm 3 m/s 756 mmHg 66%
    11:00 +34°C° 0.2 mm 3 m/s 756 mmHg 65%
    12:00 +35°C° 0.2 mm 3 m/s 755 mmHg 64%
    13:00 +35°C° 0.2 mm 3 m/s 754 mmHg 62%
    14:00 +35°C° 1.1 mm 4 m/s 754 mmHg 64%
    15:00 +34°C° 1.1 mm 4 m/s 753 mmHg 67%
    16:00 +34°C° 1.1 mm 4 m/s 753 mmHg 69%
    17:00 +33°C° 1.8 mm 4 m/s 753 mmHg 74%
    18:00 +30°C° 1.8 mm 4 m/s 754 mmHg 80%
    19:00 +29°C° 1.8 mm 4 m/s 755 mmHg 85%
    20:00 +29°C° 0 mm 3 m/s 755 mmHg 86%
    21:00 +28°C° 0 mm 2 m/s 756 mmHg 87%
    22:00 +28°C° 0 mm 2 m/s 756 mmHg 87%
    23:00 +28°C° 0 mm 2 m/s 756 mmHg 88%

    8 Iunie, Luni

    Timp Temperatura Precipitaţii Vânt Presiune Umiditate
    00:00 +28°C° 0 mm 2 m/s 755 mmHg 89%
    01:00 +28°C° 0 mm 2 m/s 755 mmHg 90%
    02:00 +28°C° 0.2 mm 2 m/s 755 mmHg 90%
    03:00 +28°C° 0.2 mm 2 m/s 755 mmHg 90%
    04:00 +27°C° 0.2 mm 2 m/s 754 mmHg 91%
    05:00 +28°C° 0 mm 2 m/s 755 mmHg 89%
    06:00 +29°C° 0 mm 2 m/s 755 mmHg 87%
    07:00 +29°C° 0 mm 2 m/s 756 mmHg 85%
    08:00 +31°C° 0 mm 2 m/s 756 mmHg 78%
    09:00 +33°C° 0 mm 3 m/s 756 mmHg 70%
    10:00 +35°C° 0 mm 3 m/s 756 mmHg 63%
    11:00 +36°C° 0.1 mm 3 m/s 755 mmHg 59%
    12:00 +37°C° 0.1 mm 3 m/s 755 mmHg 56%
    13:00 +38°C° 0.1 mm 3 m/s 754 mmHg 52%
    14:00 +37°C° 0.3 mm 4 m/s 754 mmHg 55%
    15:00 +36°C° 0.3 mm 4 m/s 753 mmHg 59%
    16:00 +35°C° 0.3 mm 4 m/s 753 mmHg 62%
    17:00 +34°C° 0.1 mm 4 m/s 753 mmHg 68%
    18:00 +31°C° 0.1 mm 3 m/s 753 mmHg 73%
    19:00 +30°C° 0.1 mm 3 m/s 754 mmHg 79%
    20:00 +30°C° 0 mm 3 m/s 754 mmHg 81%
    21:00 +29°C° 0 mm 3 m/s 755 mmHg 83%
    22:00 +29°C° 0 mm 3 m/s 756 mmHg 85%
    23:00 +29°C° 0 mm 3 m/s 755 mmHg 86%

    9 Iunie, Marţi

    Timp Temperatura Precipitaţii Vânt Presiune Umiditate
    00:00 +29°C° 0 mm 3 m/s 755 mmHg 86%
    01:00 +29°C° 0 mm 3 m/s 755 mmHg 87%
    02:00 +28°C° 0 mm 3 m/s 755 mmHg 87%
    03:00 +28°C° 0 mm 2 m/s 755 mmHg 87%
    04:00 +28°C° 0 mm 2 m/s 754 mmHg 88%
    05:00 +29°C° 0 mm 2 m/s 755 mmHg 86%
    06:00 +29°C° 0 mm 2 m/s 755 mmHg 84%
    07:00 +30°C° 0 mm 2 m/s 755 mmHg 82%
    08:00 +31°C° 0 mm 2 m/s 756 mmHg 75%
    09:00 +34°C° 0 mm 3 m/s 756 mmHg 67%
    10:00 +36°C° 0 mm 3 m/s 756 mmHg 59%
    11:00 +36°C° 0 mm 3 m/s 756 mmHg 55%
    12:00 +37°C° 0 mm 3 m/s 755 mmHg 52%
    13:00 +38°C° 0 mm 3 m/s 754 mmHg 48%
    14:00 +37°C° 0.5 mm 3 m/s 754 mmHg 52%
    15:00 +37°C° 0.5 mm 3 m/s 754 mmHg 55%
    16:00 +36°C° 0.5 mm 4 m/s 753 mmHg 59%
    17:00 +34°C° 0.2 mm 3 m/s 753 mmHg 65%
    18:00 +33°C° 0.2 mm 3 m/s 754 mmHg 70%
    19:00 +31°C° 0.2 mm 3 m/s 754 mmHg 76%
    20:00 +30°C° 0 mm 3 m/s 754 mmHg 78%
    21:00 +30°C° 0 mm 3 m/s 755 mmHg 80%
    22:00 +29°C° 0 mm 3 m/s 756 mmHg 82%
    23:00 +29°C° 0 mm 3 m/s 755 mmHg 82%

    10 Iunie, Miercuri

    Timp Temperatura Precipitaţii Vânt Presiune Umiditate
    00:00 +29°C° 0 mm 3 m/s 755 mmHg 83%
    01:00 +29°C° 0 mm 2 m/s 755 mmHg 84%
    02:00 +29°C° 0 mm 2 m/s 755 mmHg 85%
    03:00 +28°C° 0 mm 2 m/s 755 mmHg 86%
    04:00 +28°C° 0 mm 2 m/s 754 mmHg 88%
    05:00 +29°C° 0.7 mm 2 m/s 755 mmHg 87%
    06:00 +29°C° 0.7 mm 2 m/s 755 mmHg 87%
    07:00 +29°C° 0.7 mm 3 m/s 756 mmHg 86%
    08:00 +30°C° 1.2 mm 2 m/s 756 mmHg 80%
    09:00 +32°C° 1.2 mm 2 m/s 756 mmHg 74%
    10:00 +34°C° 1.2 mm 2 m/s 756 mmHg 68%
    11:00 +34°C° 1.4 mm 2 m/s 756 mmHg 69%
    12:00 +32°C° 1.4 mm 1 m/s 756 mmHg 70%
    13:00 +32°C° 1.4 mm 1 m/s 755 mmHg 71%
    14:00 +32°C° 0.6 mm 1 m/s 755 mmHg 73%
    15:00 +31°C° 0.6 mm 1 m/s 755 mmHg 76%
    16:00 +30°C° 0.6 mm 2 m/s 754 mmHg 79%
    17:00 +29°C° 0.1 mm 2 m/s 755 mmHg 82%
    18:00 +29°C° 0.1 mm 3 m/s 755 mmHg 85%
    19:00 +28°C° 0.1 mm 3 m/s 755 mmHg 87%
    20:00 +28°C° 0 mm 3 m/s 756 mmHg 88%
    21:00 +28°C° 0 mm 2 m/s 756 mmHg 89%
    22:00 +27°C° 0 mm 2 m/s 756 mmHg 89%
    23:00 +27°C° 0 mm 2 m/s 756 mmHg 89%
    Arată mai mult